Weather History for Cairns Airport, Queensland

Change the Weather History Date:

Thursday, January 2, 2014

  Actual Average Record
Temperature  
Mean Temperature 82 °F -  
Max Temperature 89 °F 89 °F - ()
Min Temperature 75 °F 74 °F - ()
Cooling Degree Days 17    
Growing Degree Days 32 (Base 50)    
Moisture  
Dew Point 72 °F    
Average Humidity 72    
Maximum Humidity 94    
Minimum Humidity 49    
Precipitation  
Precipitation 0.00 in 0.52 in - ()
Sea Level Pressure  
Sea Level Pressure 29.83 in    
Wind  
Wind Speed 5 mph ()    
Max Wind Speed 10 mph    
Max Gust Speed -    
Visibility 7.2 miles    
Events      
T = Trace of Precipitation, MM = Missing Value Source: Averaged Metar Reports

Daily Weather History Graph

Daily Weather History Graph

Search for Another Location

Airport:

Trip Planner

Search our weather history database for the weather conditions in past years. The results will help you decide how hot, cold, wet, or windy it might be!

Date:

Astronomy

Jan. 02, 2014 Rise Set
Actual Time 5:47 AM AEST 6:54 PM AEST
Civil Twilight 5:23 AM AEST 7:18 PM AEST
Nautical Twilight 4:55 AM AEST 7:46 PM AEST
Astronomical Twilight 4:26 AM AEST 8:15 PM AEST
Moon 6:20 AM AEST (1/2) 7:33 PM AEST (1/2)
Length of Visible Light 13h 54m
Length of Day
13h 06m
New Moon, 1% of the Moon is Illuminated
Jan 2
New Moon
Jan 8
First Quarter
Jan 16
Full
Jan 24
Last Quarter
Jan 31
New

Hourly Weather History & Observations

Time (AEST) Temp. Heat Index Dew Point Humidity Pressure Visibility Wind Dir Wind Speed Gust Speed Precip Events Conditions
12:00 AM 81 °F - 73 °F 70% 29.85 in - NE 5.8 mph - -  
12:00 AM 80.6 °F 85.4 °F 73.4 °F 79% 29.83 in 6.2 mi NE 5.8 mph - N/A   Scattered Clouds
12:30 AM 80.6 °F 84.6 °F 71.6 °F 74% 29.83 in 6.2 mi NE 5.8 mph - N/A   Scattered Clouds
1:00 AM 79 °F - 72 °F 74% 29.85 in - ENE 4.6 mph - -  
1:00 AM 78.8 °F - 71.6 °F 78% 29.83 in 6.2 mi ENE 4.6 mph - N/A   Scattered Clouds
1:30 AM 78.8 °F - 71.6 °F 78% 29.83 in 6.2 mi ENE 3.5 mph - N/A   Scattered Clouds
2:00 AM 77.0 °F - 73.4 °F 89% 29.83 in 6.2 mi NW 3.5 mph - N/A   Scattered Clouds
2:30 AM 78.8 °F - 73.4 °F 83% 29.83 in 6.2 mi North 3.5 mph - N/A   Scattered Clouds
3:00 AM 78 °F - 73 °F 81% 29.83 in - SSE 5.8 mph - -  
3:00 AM 78.8 °F - 73.4 °F 83% 29.83 in 6.2 mi SSE 5.8 mph - N/A   Scattered Clouds
3:30 AM 77.0 °F - 73.4 °F 89% 29.83 in 6.2 mi West 4.6 mph - N/A   Scattered Clouds
4:00 AM 77 °F - 73 °F 85% 29.84 in - West 1.2 mph - -  
4:00 AM 77.0 °F - 73.4 °F 89% 29.83 in 6.2 mi West 1.2 mph - N/A   Scattered Clouds
4:30 AM 77.0 °F - 73.4 °F 89% 29.83 in 6.2 mi Calm Calm - N/A   Scattered Clouds
5:00 AM 77.0 °F - 73.4 °F 89% 29.83 in 6.2 mi WNW 2.3 mph - N/A   Scattered Clouds
5:30 AM 75.2 °F - 73.4 °F 94% 29.83 in 6.2 mi Calm Calm - N/A   Scattered Clouds
6:00 AM 77 °F - 73 °F 84% 29.86 in 19 mi South 4.6 mph - -   Partly Cloudy
6:00 AM 77.0 °F - 73.4 °F 89% 29.86 in 6.2 mi South 4.6 mph - N/A   Scattered Clouds
6:30 AM 78.8 °F - 73.4 °F 83% 29.86 in 6.2 mi WNW 3.5 mph - N/A   Mostly Cloudy
7:00 AM 80 °F - 73 °F 73% 29.88 in - NNE 2.3 mph - -  
7:00 AM 80.6 °F 85.4 °F 73.4 °F 79% 29.86 in 6.2 mi NNE 2.3 mph - N/A   Scattered Clouds
7:30 AM 82.4 °F 88.2 °F 73.4 °F 74% 29.86 in 6.2 mi SSE 6.9 mph - N/A   Scattered Clouds
8:00 AM 82.4 °F 88.2 °F 73.4 °F 74% 29.89 in 6.2 mi SSE 4.6 mph - N/A   Scattered Clouds
8:30 AM 84.2 °F 89.6 °F 71.6 °F 66% 29.89 in 6.2 mi SSE 3.5 mph - N/A   Scattered Clouds
9:00 AM 84 °F - 72 °F 59% 29.89 in 19 mi NE 5.8 mph - -   Partly Cloudy
9:00 AM 84.2 °F 89.6 °F 71.6 °F 66% 29.89 in 6.2 mi NE 5.8 mph - N/A   Partly Cloudy
9:30 AM 86.0 °F 93.4 °F 73.4 °F 66% 29.89 in 6.2 mi NE 8.1 mph - N/A   Partly Cloudy
10:00 AM 86 °F - 72 °F 55% 29.89 in - ENE 9.2 mph - -  
10:00 AM 86.0 °F 91.8 °F 71.6 °F 62% 29.89 in 6.2 mi ENE 9.2 mph - N/A   Partly Cloudy
10:30 AM 86.0 °F 91.8 °F 71.6 °F 62% 29.86 in 6.2 mi NE 10.4 mph - N/A   Partly Cloudy
11:00 AM 86.0 °F 91.8 °F 71.6 °F 62% 29.86 in 6.2 mi NE 9.2 mph - N/A   Partly Cloudy
11:30 AM 87.8 °F 95.6 °F 73.4 °F 62% 29.86 in 6.2 mi NE 10.4 mph - N/A   Partly Cloudy
12:00 PM 89 °F - 73 °F 50% 29.86 in 19 mi NNE 10.4 mph - -   Partly Cloudy
12:00 PM 87.8 °F 95.6 °F 73.4 °F 62% 29.86 in 6.2 mi NNE 10.4 mph - N/A   Partly Cloudy
12:30 PM 87.8 °F 93.8 °F 71.6 °F 58% 29.86 in 6.2 mi ENE 10.4 mph - N/A   Partly Cloudy
1:00 PM 87 °F - 71 °F 51% 29.86 in - NNE 10.4 mph - -  
1:00 PM 86.0 °F 91.8 °F 71.6 °F 62% 29.83 in 6.2 mi NNE 10.4 mph - N/A   Partly Cloudy
1:30 PM 87.8 °F 93.8 °F 71.6 °F 58% 29.83 in 6.2 mi NNE 10.4 mph - N/A   Partly Cloudy
2:00 PM 87.8 °F 93.8 °F 71.6 °F 58% 29.83 in 6.2 mi NE 9.2 mph - N/A   Partly Cloudy
2:30 PM 87.8 °F 93.8 °F 71.6 °F 58% 29.80 in 6.2 mi NNE 9.2 mph - N/A   Partly Cloudy
3:00 PM 89 °F - 72 °F 49% 29.80 in 19 mi North 10.4 mph - -   Partly Cloudy
3:00 PM 89.6 °F 96.2 °F 71.6 °F 55% 29.80 in 6.2 mi North 10.4 mph - N/A   Partly Cloudy
3:30 PM 87.8 °F 93.8 °F 71.6 °F 58% 29.77 in 6.2 mi NNE 9.2 mph - N/A   Partly Cloudy
4:00 PM 86 °F - 72 °F 55% 29.79 in - NNE 10.4 mph - -  
4:00 PM 86.0 °F 91.8 °F 71.6 °F 62% 29.77 in 6.2 mi NNE 10.4 mph - N/A   Partly Cloudy
4:30 PM 86.0 °F 91.8 °F 71.6 °F 62% 29.77 in 6.2 mi NNE 9.2 mph - N/A   Partly Cloudy
5:00 PM 84.2 °F 89.6 °F 71.6 °F 66% 29.77 in 6.2 mi North 9.2 mph - N/A   Partly Cloudy
5:30 PM 84.2 °F 89.6 °F 71.6 °F 66% 29.77 in 6.2 mi North 8.1 mph - N/A   Partly Cloudy
6:00 PM 83 °F - 72 °F 61% 29.79 in - NNE 6.9 mph - -  
6:00 PM 82.4 °F 87.2 °F 71.6 °F 70% 29.77 in 6.2 mi NNE 6.9 mph - N/A   Partly Cloudy
6:30 PM 82.4 °F 87.2 °F 71.6 °F 70% 29.77 in 6.2 mi North 5.8 mph - N/A   Partly Cloudy
7:00 PM 81 °F - 72 °F 68% 29.80 in - NNE 5.8 mph - -  
7:00 PM 80.6 °F 84.6 °F 71.6 °F 74% 29.80 in 6.2 mi NNE 5.8 mph - N/A   Partly Cloudy
7:30 PM 80.6 °F 84.6 °F 71.6 °F 74% 29.80 in 6.2 mi NNE 4.6 mph - N/A   Partly Cloudy
8:00 PM 80.6 °F 85.4 °F 73.4 °F 79% 29.80 in 6.2 mi NNE 4.6 mph - N/A   Partly Cloudy
8:30 PM 80.6 °F 84.6 °F 71.6 °F 74% 29.80 in 6.2 mi NNE 4.6 mph - N/A   Scattered Clouds
9:00 PM 80 °F - 73 °F 73% 29.83 in - WNW 4.6 mph - -  
9:00 PM 80.6 °F 85.4 °F 73.4 °F 79% 29.83 in 6.2 mi WNW 4.6 mph - N/A   Scattered Clouds
9:30 PM 80.6 °F 85.4 °F 73.4 °F 79% 29.83 in 6.2 mi WNW 4.6 mph - N/A   Scattered Clouds
10:00 PM 79 °F - 73 °F 76% 29.84 in - WNW 4.6 mph - -  
10:00 PM 78.8 °F - 73.4 °F 83% 29.83 in 6.2 mi WNW 4.6 mph - N/A   Scattered Clouds
10:30 PM 78.8 °F - 73.4 °F 83% 29.83 in 6.2 mi Calm Calm - N/A   Scattered Clouds
11:00 PM 78.8 °F - 73.4 °F 83% 29.83 in 6.2 mi Calm Calm - N/A   Scattered Clouds
11:30 PM 78.8 °F - 73.4 °F 83% 29.83 in 6.2 mi NNW 1.2 mph - N/A   Scattered Clouds